EW3830 Weather Reports


Display with metric or nautical units.
time (UTC)temp
F
wind
direction
speed
MPH
gust
MPH
rain 1hr
in
rain 24hr
in
rain mn
in
humidity
%
barometer
mb
20220926125416 55 0 5.0 13.0 0.02 0.04 0.04 87 998.2
20220926124916 55 0 4.0 13.0 0.02 0.04 0.04 86 998.3
20220926124418 55 0 3.0 11.0 0.02 0.03 0.04 87 998.3
20220926123929 55 0 3.0 11.0 0.02 0.03 0.03 86 998.4
20220926123417 55 0 3.0 15.0 0.01 0.02 0.02 85 998.5
20220926122921 55 0 4.0 15.0 0.01 0.02 0.02 84 998.6
20220926122643 55 0 4.0 15.0 0.01 0.02 0.02 83 998.7
20220926121911 56 0 4.0 15.0 0.01 0.02 0.02 82 998.9
20220926121412 56 0 4.0 11.0 0.00 0.02 0.02 81 998.9
20220926121145 56 0 4.0 11.0 0.00 0.02 0.02 82 999.0
20220926115645 56 0 3.0 11.0 0.00 0.02 0.02 82 999.1
20220926114912 56 0 3.0 11.0 0.00 0.02 0.02 84 999.1
20220926114414 56 0 3.0 11.0 0.00 0.02 0.02 83 999.1
20220926114139 56 0 3.0 11.0 0.00 0.02 0.02 84 999.2
20220926113640 56 0 4.0 12.0 0.00 0.02 0.02 83 999.2
20220926113141 56 0 3.0 12.0 0.00 0.02 0.02 82 999.3
20220926112409 56 0 3.0 9.0 0.00 0.02 0.02 82 999.4
20220926112139 56 0 4.0 9.0 0.00 0.02 0.02 81 999.4
20220926111406 56 0 4.0 12.0 0.00 0.02 0.02 81 999.5
20220926111152 56 0 4.0 12.0 0.00 0.02 0.02 81 999.5
20220926110651 56 0 4.0 14.0 0.00 0.02 0.02 82 999.6
20220926105905 56 0 4.0 14.0 0.00 0.02 0.02 81 999.7
20220926104905 56 0 3.0 10.0 0.00 0.02 0.02 81 999.9
20220926104405 56 0 3.0 10.0 0.01 0.02 0.02 81 1000.0
20220926103904 56 0 4.0 10.0 0.01 0.02 0.02 81 1000.0
20220926102347 56 0 4.0 13.0 0.01 0.02 0.02 81 1000.3
20220926102111 56 0 3.0 13.0 0.01 0.02 0.02 82 1000.4
20220926101336 55 0 3.0 10.0 0.01 0.02 0.02 83 1000.5
20220926100828 55 0 3.0 10.0 0.01 0.02 0.02 83 1000.6
20220926100323 55 0 3.0 11.0 0.01 0.02 0.02 84 1000.8
20220926095818 55 0 3.0 11.0 0.01 0.02 0.02 84 1000.7
20220926095542 54 0 3.0 11.0 0.01 0.02 0.02 84 1000.8
20220926094804 54 0 3.0 11.0 0.01 0.02 0.02 85 1000.9
20220926094530 54 0 2.0 10.0 0.00 0.01 0.01 86 1001.0
20220926094027 54 0 3.0 10.0 0.00 0.01 0.01 86 1001.1
20220926093247 53 0 3.0 9.0 0.00 0.01 0.01 86 1001.1
20220926092740 53 0 3.0 9.0 0.00 0.02 0.01 87 1001.2
20220926092234 53 0 4.0 11.0 0.00 0.02 0.01 87 1001.2
20220926092010 53 0 3.0 11.0 0.01 0.02 0.01 88 1001.3
20220926091223 53 0 3.0 12.0 0.01 0.02 0.01 88 1001.5
20220926090210 52 0 3.0 12.0 0.01 0.02 0.01 88 1001.6
20220926085157 52 0 3.0 9.0 0.01 0.02 0.01 88 1001.6
20220926084923 52 0 2.0 9.0 0.01 0.02 0.01 88 1001.6
20220926084144 52 0 2.0 6.0 0.01 0.02 0.01 87 1001.6
20220926083404 53 0 2.0 8.0 0.01 0.02 0.01 87 1001.9
20220926082628 53 0 3.0 8.0 0.01 0.02 0.01 87 1002.0
20220926082122 53 0 3.0 9.0 0.00 0.01 0.00 87 1002.0
20220926081846 53 0 3.0 9.0 0.00 0.01 0.00 86 1002.0
20220926081341 53 0 3.0 9.0 0.00 0.01 0.00 86 1002.0
20220926080834 52 0 3.0 9.0 0.00 0.01 0.00 86 1002.1
20220926080109 52 0 3.0 9.0 0.00 0.01 0.00 86 1002.1
20220926075550 52 0 3.0 13.0 0.00 0.01 0.00 86 1002.2
20220926075044 52 0 3.0 13.0 0.00 0.01 0.00 86 1002.2
20220926074538 52 0 3.0 12.0 0.00 0.01 0.00 86 1002.3
20220926074032 52 0 4.0 12.0 0.00 0.01 0.00 85 1002.3
20220926073757 52 0 4.0 10.0 0.00 0.01 0.00 84 1002.4
20220926072516 52 0 3.0 10.0 0.00 0.01 0.00 84 1002.5
20220926071501 52 0 3.0 10.0 0.00 0.01 0.00 85 1002.7
20220926070955 52 0 3.0 8.0 0.00 0.01 0.00 85 1002.7
20220926070502 52 0 3.0 8.0 0.00 0.01 0.00 85 1002.8
20220926070215 52 0 3.0 9.0 0.00 0.01 0.00 85 1003.0
20220926064930 52 0 3.0 9.0 0.00 0.01 0.00 84 1003.1
20220926064656 52 0 3.0 9.0 0.00 0.01 0.00 84 1003.0
20220926063917 52 0 3.0 8.0 0.00 0.01 0.00 84 1003.2
20220926063411 52 0 3.0 8.0 0.00 0.01 0.00 84 1003.3
20220926062907 52 0 3.0 8.0 0.00 0.01 0.00 84 1003.4
20220926062359 52 0 3.0 8.0 0.00 0.01 0.00 84 1003.4
20220926062124 52 0 3.0 8.0 0.00 0.01 0.00 84 1003.5
20220926061347 52 0 3.0 8.0 0.00 0.01 0.00 85 1003.7
20220926060841 52 0 3.0 8.0 0.00 0.01 0.00 85 1003.7
20220926060337 52 0 3.0 9.0 0.00 0.01 0.00 85 1003.8
20220926060102 52 0 3.0 9.0 0.00 0.01 0.00 85 1003.9
20220926055324 52 0 3.0 9.0 0.00 0.01 0.00 85 1003.9
20220926054818 52 0 3.0 9.0 0.00 0.01 0.00 86 1004.1
20220926053805 52 0 2.0 8.0 0.00 0.01 0.00 86 1004.2
20220926053024 52 0 3.0 8.0 0.00 0.01 0.00 86 1004.3
20220926052520 52 0 2.0 8.0 0.00 0.01 0.00 86 1004.4
20220926051741 52 0 2.0 9.0 0.00 0.01 0.00 86 1004.4
20220926051506 52 0 2.0 6.0 0.00 0.01 0.00 86 1004.6
20220926050729 52 0 2.0 6.0 0.00 0.01 0.00 86 1004.7
20220926050511 52 0 2.0 6.0 0.00 0.01 0.00 86 1004.8
20220926045213 52 0 2.0 6.0 0.00 0.01 0.00 86 1004.8
20220926044705 52 0 2.0 8.0 0.00 0.01 0.00 87 1004.9
20220926044201 52 0 2.0 8.0 0.00 0.01 0.00 87 1005.0
20220926043653 52 0 2.0 8.0 0.00 0.01 0.00 87 1005.0
20220926043419 52 0 2.0 8.0 0.00 0.01 0.00 87 1005.3
20220926042641 52 0 2.0 8.0 0.00 0.01 0.00 88 1005.4
20220926042135 52 0 2.0 8.0 0.00 0.01 0.00 88 1005.5
20220926041859 52 0 2.0 8.0 0.00 0.01 0.00 88 1005.6
20220926041124 52 0 2.0 8.0 0.00 0.01 0.00 88 1005.7
20220926040124 52 0 2.0 6.0 0.00 0.01 0.00 89 1005.9
20220926035840 51 0 2.0 6.0 0.00 0.01 0.00 89 1006.0
20220926035059 51 0 2.0 6.0 0.00 0.01 0.00 89 1006.1
20220926034826 52 0 2.0 6.0 0.00 0.01 0.00 89 1006.1
20220926034051 51 0 1.0 5.0 0.00 0.01 0.00 89 1006.2
20220926033543 51 0 2.0 5.0 0.00 0.01 0.00 89 1006.2
20220926033035 52 0 2.0 5.0 0.00 0.01 0.00 89 1006.3
20220926032531 52 0 2.0 5.0 0.00 0.01 0.00 89 1006.3
20220926032029 52 0 2.0 5.0 0.00 0.01 0.00 89 1006.4
20220926031529 52 0 2.0 5.0 0.00 0.01 0.00 89 1006.5
20220926031300 52 0 2.0 5.0 0.00 0.01 0.00 89 1006.6
20220926030527 52 0 2.0 5.0 0.00 0.01 0.00 89 1006.6
20220926030257 52 0 2.0 5.0 0.00 0.01 0.00 89 1006.7
20220926025525 52 0 2.0 5.0 0.00 0.01 0.00 89 1006.7
20220926025026 52 0 2.0 4.0 0.00 0.01 0.00 89 1006.8
20220926024527 52 0 2.0 4.0 0.00 0.01 0.00 90 1007.0
20220926024026 52 0 2.0 6.0 0.00 0.01 0.00 90 1007.1
20220926023759 52 0 2.0 6.0 0.00 0.01 0.00 90 1007.2
20220926023025 52 0 1.0 4.0 0.00 0.01 0.00 90 1007.2
20220926022758 52 0 1.0 4.0 0.00 0.01 0.00 90 1007.3
20220926022025 52 0 1.0 4.0 0.00 0.01 0.00 91 1007.5
20220926021525 52 0 1.0 4.0 0.00 0.01 0.00 91 1007.6
20220926020525 52 0 1.0 4.0 0.00 0.01 0.00 91 1007.8
20220926020256 52 0 1.0 3.0 0.00 0.01 0.00 91 1008.0
20220926015758 51 0 0.0 3.0 0.00 0.01 0.00 91 1008.1
20220926015257 51 0 1.0 3.0 0.00 0.01 0.00 92 1008.2
20220926014525 51 0 1.0 2.0 0.00 0.01 0.00 92 1008.3
20220926014025 51 0 1.0 3.0 0.00 0.01 0.00 92 1008.3
20220926013756 51 0 1.0 3.0 0.00 0.01 0.00 92 1008.4
20220926013025 51 0 1.0 3.0 0.00 0.01 0.00 92 1008.5
20220926012525 51 0 1.0 2.0 0.00 0.01 0.00 92 1008.5
20220926011525 51 0 0.0 2.0 0.00 0.01 0.00 92 1008.7
20220926011025 51 0 0.0 2.0 0.00 0.01 0.00 92 1008.8
20220926010522 51 0 0.0 2.0 0.00 0.01 0.00 92 1008.8
20220926010014 51 0 1.0 3.0 0.00 0.01 0.00 91 1008.8
20220926005508 51 0 1.0 3.0 0.00 0.01 0.00 91 1008.8
20220926005233 51 0 1.0 3.0 0.00 0.01 0.00 91 1008.9
20220926004456 50 0 1.0 3.0 0.00 0.01 0.00 91 1008.9
20220926003952 50 0 1.0 3.0 0.00 0.01 0.00 91 1009.1
20220926003446 50 0 1.0 3.0 0.00 0.01 0.00 91 1009.2
20220926002938 50 0 1.0 3.0 0.00 0.01 0.00 91 1009.3
20220926002703 50 0 1.0 3.0 0.00 0.01 0.00 91 1009.4
20220926001926 50 0 0.0 2.0 0.00 0.01 0.00 92 1009.5
20220926001651 50 0 0.0 2.0 0.00 0.01 0.00 92 1009.5
20220926001145 50 0 0.0 1.0 0.00 0.01 0.00 92 1009.6
20220926000641 50 0 0.0 1.0 0.00 0.01 0.00 92 1009.6
20220925235903 50 0 0.0 1.0 0.00 0.01 0.00 92 1009.7
20220925235627 50 0 0.0 1.0 0.00 0.01 0.00 92 1009.7
20220925234851 50 0 0.0 0.0 0.00 0.01 0.00 91 1009.8
20220925234617 50 0 0.0 2.0 0.00 0.01 0.00 91 1009.9
20220925232826 50 0 0.0 1.0 0.00 0.02 0.00 91 1010.3
20220925232322 50 0 0.0 2.0 0.00 0.02 0.00 91 1010.3
20220925231815 50 0 0.0 2.0 0.00 0.02 0.00 91 1010.4
20220925231538 50 0 0.0 1.0 0.00 0.02 0.00 91 1010.4
20220925230802 50 0 0.0 0.0 0.00 0.02 0.00 90 1010.5
20220925230315 50 0 0.0 0.0 0.00 0.03 0.00 90 1010.6
20220925230033 50 0 0.0 0.0 0.00 0.03 0.00 90 1010.7
20220925225300 50 0 0.0 1.0 0.00 0.04 0.00 90 1010.7
20220925224800 50 0 0.0 1.0 0.00 0.05 0.00 90 1010.8
20220925224259 50 0 0.0 1.0 0.00 0.06 0.00 90 1010.7
20220925223757 50 0 0.0 1.0 0.00 0.06 0.00 90 1010.8
20220925223258 50 0 0.0 2.0 0.00 0.06 0.00 90 1010.8
20220925222752 50 0 0.0 2.0 0.00 0.07 0.00 90 1010.7
20220925222525 50 0 0.0 2.0 0.00 0.07 0.00 90 1010.9
20220925221251 51 0 0.0 2.0 0.00 0.08 0.00 89 1010.9
20220925220748 51 0 0.0 2.0 0.00 0.08 0.00 89 1010.9
20220925220247 51 0 0.0 2.0 0.00 0.08 0.00 89 1010.9
20220925215746 51 0 0.0 2.0 0.00 0.09 0.09 89 1010.9
20220925215245 51 0 0.0 2.0 0.00 0.09 0.09 89 1011.0
20220925214745 51 0 0.0 2.0 0.00 0.09 0.09 88 1011.0
20220925214245 51 0 0.0 2.0 0.00 0.09 0.09 88 1011.0
20220925214013 51 0 0.0 2.0 0.00 0.09 0.09 88 1011.1
20220925212741 51 0 0.0 0.0 0.00 0.09 0.09 88 1011.2
20220925212511 51 0 0.0 0.0 0.00 0.09 0.09 88 1011.3
20220925212013 51 0 0.0 2.0 0.00 0.09 0.09 88 1011.4
20220925211241 52 0 0.0 2.0 0.00 0.10 0.09 88 1011.4
20220925210741 52 0 0.0 0.0 0.00 0.11 0.09 87 1011.4
20220925210513 52 0 0.0 0.0 0.00 0.11 0.09 87 1011.4
20220925205741 52 0 0.0 0.0 0.00 0.11 0.09 87 1011.5
20220925205243 52 0 0.0 0.0 0.00 0.11 0.09 87 1011.6
20220925204741 52 0 0.0 0.0 0.00 0.11 0.09 87 1011.6
20220925204241 52 0 0.0 1.0 0.00 0.11 0.09 87 1011.5
20220925203741 52 0 0.0 1.0 0.00 0.11 0.09 88 1011.6
20220925203241 52 0 0.0 0.0 0.00 0.11 0.09 87 1011.6
20220925202741 52 0 0.0 1.0 0.00 0.11 0.09 87 1011.7
20220925202241 52 0 0.0 1.0 0.00 0.11 0.09 87 1011.7
20220925201742 52 0 0.0 0.0 0.00 0.11 0.09 88 1011.8
20220925201241 52 0 0.0 0.0 0.00 0.11 0.09 88 1011.9
20220925200733 52 0 0.0 0.0 0.00 0.11 0.09 87 1011.9
20220925200226 52 0 0.0 0.0 0.00 0.11 0.09 87 1011.9
20220925195722 52 0 0.0 0.0 0.00 0.11 0.09 86 1011.9
20220925194710 52 0 0.0 0.0 0.00 0.11 0.09 85 1011.9
20220925194202 52 0 0.0 0.0 0.00 0.11 0.09 85 1011.9
20220925193657 52 0 0.0 0.0 0.00 0.11 0.09 85 1012.0
20220925193150 53 0 0.0 0.0 0.00 0.11 0.09 85 1012.1
20220925192644 53 0 0.0 0.0 0.00 0.11 0.09 84 1012.2
20220925192410 53 0 0.0 0.0 0.00 0.11 0.09 84 1012.1
20220925191632 53 0 0.0 0.0 0.00 0.11 0.09 83 1012.2
20220925191124 53 0 0.0 0.0 0.00 0.11 0.09 83 1012.1
20220925190619 54 0 0.0 0.0 0.00 0.11 0.09 83 1012.1
20220925190112 54 0 0.0 0.0 0.00 0.11 0.09 82 1012.2
20220925185607 54 0 0.0 0.0 0.00 0.11 0.09 82 1012.1
20220925185331 54 0 0.0 0.0 0.00 0.11 0.09 82 1012.3
20220925184555 54 0 0.0 0.0 0.00 0.11 0.09 81 1012.3
20220925184048 55 0 0.0 0.0 0.00 0.11 0.09 81 1012.3
20220925183542 55 0 0.0 0.0 0.00 0.11 0.09 81 1012.4
20220925182530 56 0 0.0 0.0 0.00 0.11 0.09 80 1012.4
20220925181519 56 0 0.0 1.0 0.00 0.11 0.09 79 1012.4
20220925181014 56 0 0.0 1.0 0.00 0.11 0.09 79 1012.5
20220925180521 56 0 0.0 3.0 0.00 0.11 0.09 78 1012.5
20220925180001 56 0 0.0 3.0 0.00 0.11 0.09 77 1012.6
20220925175727 56 0 0.0 3.0 0.00 0.11 0.09 77 1012.5
20220925174948 56 0 0.0 3.0 0.00 0.11 0.09 76 1012.5
20220925174206 57 0 0.0 2.0 0.00 0.11 0.09 76 1012.4
20220925172925 57 0 0.0 1.0 0.00 0.11 0.09 74 1012.5
20220925172650 57 0 0.0 1.0 0.00 0.11 0.09 72 1012.5
20220925171914 58 0 0.0 1.0 0.00 0.11 0.09 73 1012.4
20220925171406 58 0 0.0 0.0 0.00 0.11 0.09 71 1012.5
20220925170901 58 0 0.0 0.0 0.00 0.11 0.09 70 1012.4
20220925170356 58 0 0.0 0.0 0.00 0.11 0.09 70 1012.4
20220925165848 58 0 0.0 0.0 0.00 0.11 0.09 68 1012.4
20220925165355 59 0 0.0 0.0 0.00 0.11 0.09 67 1012.5
20220925164604 59 0 0.0 0.0 0.00 0.11 0.09 67 1012.5
20220925163826 60 0 0.0 0.0 0.00 0.11 0.09 66 1012.5
20220925163319 60 0 0.0 1.0 0.00 0.11 0.09 66 1012.5
20220925162812 60 0 0.0 2.0 0.00 0.11 0.09 64 1012.4
20220925162306 61 0 0.0 1.0 0.00 0.11 0.09 63 1012.4
20220925162031 61 0 0.0 1.0 0.00 0.11 0.09 62 1012.5
20220925161525 62 338 0.0 1.0 0.00 0.11 0.09 60 1012.4
20220925160242 62 338 0.0 1.0 0.00 0.11 0.09 59 1012.4
20220925155501 62 338 0.0 1.0 0.00 0.11 0.09 59 1012.5
20220925154726 63 339 0.0 2.0 0.00 0.11 0.09 58 1012.5
20220925154449 63 349 0.0 2.0 0.00 0.11 0.09 56 1012.6
20220925153716 64 5 0.0 4.0 0.00 0.11 0.09 55 1012.6
20220925153206 65 5 1.0 4.0 0.00 0.11 0.09 54 1012.6
20220925152157 64 285 1.0 2.0 0.00 0.11 0.09 57 1012.7
20220925151921 64 285 1.0 2.0 0.00 0.11 0.09 57 1012.7
20220925151142 64 284 1.0 3.0 0.00 0.11 0.09 58 1012.7
20220925150132 64 269 1.0 3.0 0.00 0.11 0.09 60 1012.7
20220925145625 63 339 1.0 3.0 0.00 0.11 0.09 60 1012.8
20220925145119 62 121 1.0 3.0 0.00 0.11 0.09 63 1012.9
20220925144612 62 92 0.0 3.0 0.00 0.11 0.09 64 1013.0
20220925144107 62 13 1.0 3.0 0.00 0.11 0.09 63 1012.9
20220925143600 62 327 1.0 3.0 0.00 0.11 0.09 63 1013.0
20220925143055 62 321 1.0 3.0 0.00 0.11 0.09 63 1013.1
20220925142820 62 265 1.0 3.0 0.00 0.11 0.09 63 1013.1
20220925142042 62 355 1.0 3.0 0.00 0.11 0.09 63 1013.1
20220925141536 62 290 1.0 3.0 0.00 0.11 0.09 62 1013.0
20220925141031 63 0 1.0 5.0 0.00 0.11 0.09 61 1013.0
20220925140537 63 336 1.0 5.0 0.00 0.11 0.09 60 1013.0
20220925140248 63 274 1.0 5.0 0.00 0.11 0.09 57 1013.1
20220925135514 64 158 1.0 4.0 0.00 0.11 0.09 55 1013.1
20220925135006 64 304 1.0 4.0 0.00 0.11 0.09 57 1013.1
20220925134501 63 298 0.0 3.0 0.00 0.11 0.09 60 1013.2
20220925133954 63 298 1.0 3.0 0.00 0.11 0.09 59 1013.2
20220925133448 64 296 1.0 3.0 0.00 0.11 0.09 57 1013.3
20220925133212 65 304 1.0 5.0 0.00 0.11 0.09 56 1013.3
20220925132438 64 286 2.0 5.0 0.00 0.11 0.09 56 1013.4
20220925131931 64 304 1.0 3.0 0.00 0.11 0.09 56 1013.3
20220925131426 64 294 1.0 3.0 0.00 0.11 0.09 57 1013.4
20220925130918 64 279 1.0 3.0 0.00 0.11 0.09 57 1013.5
20220925130412 64 217 1.0 4.0 0.00 0.11 0.09 58 1013.5
20220925125906 64 313 1.0 4.0 0.00 0.11 0.09 60 1013.5